Location: Melita
(38.4566°N, 122.6369°W)
Time: 09:12:22
(UTC+00:00)

COSMOS 2455 - Pass Details

Date: 24 January 2020
Orbit: 902 x 907 km, 67.1° (Epoch: 17 February)

Event Time Altitude Azimuth Distance (km) Brightness Sun altitude
Exits shadow 13:32:37 38° 307° (NW) 1,363 3.3 -21.4°
Drops below altitude 10° 13:38:08 10° 13° (NNE) 2,594 5.3 -20.3°
Sets 13:40:51 0° 22° (NNE) 3,540 6.1 -19.8°
